Wetbulb
68.97 70.47 71.09 72.02 72.66 73.63 74.88 76.63 77.49 80.38 79.69 78.32 77.07 77.52 76.60 76.82 74.00 76.49 78.32 80.49 78.16 76.34 80.43 77.39 78.45 79.82 78.97 79.28 79.49 78.75 77.55 76.51 77.03 75.55 73.46 73.07 73.99 72.97 72.12 67.96 66.39 67.63 69.53
68.28 70.31 71.50 72.28 72.94 73.56 74.62 76.02 77.00 79.02 78.52 77.96 78.65 75.29 77.95 76.46 78.52 75.69 75.67 80.54 79.23 80.69 80.47 79.68 80.34 78.63 79.91 80.46 76.72 76.96 76.87 75.83 77.51 74.60 72.99 69.42 70.84 71.71 70.09 66.79 66.32 66.64 68.28
67.76 69.93 71.34 72.16 72.74 73.71 74.50 75.93 77.14 77.87 78.03 78.36 79.06 80.65 80.64 80.02 78.99 75.84 75.89 79.13 81.04 80.98 81.01 81.63 81.74 82.53 81.85 78.23 75.69 76.91 77.38 73.98 76.59 76.84 72.96 68.70 66.53 69.03 69.95 66.77 65.24 65.20 64.75
69.14 70.50 71.21 71.74 72.39 73.43 75.07 76.44 76.78 78.19 77.66 79.11 77.84 78.71 76.65 75.34 79.09 78.47 74.34 78.96 80.45 80.66 80.60 81.33 81.83 82.56 81.63 80.01 79.41 78.41 78.76 77.70 74.28 76.36 75.03 74.43 73.03 67.81 66.11 65.21 64.52 64.61 65.36
68.37 68.91 70.17 72.04 72.54 73.06 73.98 75.38 77.00 77.31 78.42 77.60 78.64 77.79 77.35 76.59 77.17 75.85 80.43 81.03 81.43 80.14 80.04 80.79 81.71 82.75 81.82 80.66 79.84 79.92 79.34 78.84 77.13 75.71 74.35 74.44 73.43 71.75 68.24 64.24 63.65 64.76 65.29
70.16 70.18 71.46 72.48 72.19 73.02 73.23 74.62 76.24 77.21 77.76 78.83 77.88 78.32 79.29 76.26 78.01 80.35 79.65 78.21 77.61 78.32 80.46 81.10 82.03 82.88 82.39 81.11 80.55 80.40 79.26 79.06 77.90 76.78 75.11 73.40 72.19 70.04 69.22 63.64 63.27 62.20 65.37
70.15 71.06 71.31 71.18 72.02 72.18 72.65 73.39 75.93 76.29 77.96 77.94 77.65 77.45 78.05 80.16 79.52 80.80 79.25 79.66 76.30 76.68 76.79 82.61 81.57 81.22 81.91 81.29 80.98 80.10 79.79 78.14 77.12 76.89 75.10 75.15 72.75 72.21 70.69 66.54 65.19 63.38 65.88
68.69 70.72 71.16 72.07 72.09 72.09 73.07 73.48 75.97 76.47 77.48 77.05 77.99 78.37 78.11 77.82 78.55 80.25 78.89 79.23 77.36 78.10 81.36 80.44 79.92 79.80 79.66 79.94 79.96 78.91 77.79 77.88 76.98 76.59 77.12 74.97 73.33 72.76 71.06 67.99 65.65 63.50 64.20
68.19 70.31 71.35 72.10 72.67 72.01 72.80 73.28 76.18 76.70 77.12 77.46 77.68 78.04 78.15 77.76 76.69 79.23 79.28 77.33 79.21 77.65 79.41 79.61 79.81 80.53 79.92 80.31 80.29 77.68 78.62 78.10 77.84 76.41 74.77 75.00 74.61 75.49 74.41 70.94 68.74 66.72 61.40
68.42 69.82 71.35 72.51 72.48 72.41 72.02 73.02 75.66 76.21 77.31 77.71 77.57 77.45 77.79 78.41 77.65 80.10 80.77 79.88 81.30 82.19 80.26 80.29 80.32 79.98 80.43 80.36 80.09 78.23 78.91 78.02 77.39 77.33 76.43 76.30 75.91 74.76 73.56 70.87 69.81 70.24 64.39
68.61 69.63 70.52 71.75 71.84 71.72 71.77 72.10 72.40 75.57 76.67 77.05 76.98 76.95 77.40 78.12 78.66 78.13 78.75 79.56 80.91 81.14 80.83 81.33 81.09 80.55 80.24 80.69 80.47 79.76 78.71 78.68 77.92 77.29 76.49 75.81 76.11 75.46 71.60 71.58 70.87 66.80 65.39
66.43 67.28 69.67 70.96 71.45 71.76 72.10 72.34 72.78 73.67 75.71 76.63 77.21 76.62 77.87 77.88 77.91 78.07 78.46 78.93 79.17 80.41 81.00 81.42 81.21 80.93 80.55 80.86 79.63 78.70 78.99 77.70 76.40 76.95 76.16 76.19 76.54 75.37 71.94 70.61 67.27 65.73 65.37
68.37 70.31 71.85 73.86 74.52 71.91 72.68 73.36 73.66 73.75 75.43 76.25 76.25 77.26 77.40 77.63 77.86 78.29 78.58 79.33 79.47 79.73 79.73 80.94 80.39 80.77 81.01 80.63 80.64 79.65 77.09 77.26 77.29 76.86 76.25 75.18 74.23 73.86 73.73 68.87 66.36 65.37 65.57
71.20 71.86 73.55 74.31 75.57 76.84 80.06 75.46 74.10 74.32 75.30 75.96 75.68 76.55 76.79 77.52 77.91 78.96 79.12 79.41 80.23 80.18 80.01 80.88 81.53 81.28 80.94 79.14 77.68 76.69 76.82 78.03 77.02 76.38 75.30 73.63 72.65 72.26 69.52 68.19 66.09 65.64 64.91
69.57 70.61 71.27 72.14 74.74 76.39 79.16 80.40 80.91 78.45 75.99 75.65 75.81 75.59 77.48 78.07 78.22 78.27 79.34 79.25 79.50 79.79 80.66 80.78 80.69 80.83 75.39 72.38 73.14 74.65 76.42 76.60 76.02 76.18 74.52 72.33 70.87 70.53 69.73 67.78 65.68 65.31 64.07
67.37 69.92 71.31 72.29 73.39 76.16 77.00 78.72 80.69 81.37 82.84 78.44 76.43 77.48 77.53 78.39 78.08 78.19 78.47 79.22 79.50 80.09 80.25 79.92 79.82 78.57 70.28 62.40 64.69 68.21 76.09 76.17 75.25 73.81 73.81 71.60 70.44 67.61 67.38 66.35 66.10 65.86 64.74
65.62 67.73 69.74 71.32 74.23 76.52 77.78 77.55 79.72 81.61 81.35 81.07 78.84 78.04 78.66 77.74 78.18 78.52 78.96 78.76 79.29 80.14 80.09 79.92 79.32 76.28 68.85 60.71 61.28 64.92 74.85 74.85 73.99 73.16 71.29 70.52 68.97 68.18 66.93 64.65 64.06 63.89 64.55
65.05 66.17 67.47 69.05 72.12 73.46 74.05 77.32 78.72 80.79 79.71 79.17 79.96 78.94 79.00 78.33 78.97 78.92 78.46 79.61 79.65 80.02 79.70 78.40 76.88 71.99 63.98 58.52 58.84 61.69 73.24 74.03 73.02 71.55 71.45 70.89 69.92 69.02 67.91 66.80 66.20 65.83 62.43
65.53 66.87 67.08 68.07 71.90 72.75 74.02 73.82 75.21 78.07 77.92 78.60 78.40 80.02 79.24 79.00 78.94 78.73 78.91 79.52 79.53 79.90 78.04 76.82 75.71 71.75 66.90 56.79 56.87 61.59 74.11 73.01 72.15 71.25 67.60 70.40 69.49 64.72 63.78 66.89 65.63 65.18 64.12
65.06 65.09 65.92 66.84 69.05 70.47 72.82 73.91 72.67 74.46 76.48 77.35 79.05 79.62 80.44 79.58 79.03 79.10 79.15 79.66 79.96 77.97 76.26 74.71 73.17 67.10 66.21 55.33 55.77 60.55 71.71 72.34 70.74 70.99 66.12 60.87 65.43 60.95 60.33 66.76 66.29 64.70 63.88
64.61 65.49 66.65 66.61 68.60 70.40 71.04 72.80 72.94 73.35 75.71 76.19 75.81 79.19 79.56 79.46 79.30 79.43 79.92 79.28 77.37 75.79 73.75 72.13 71.32 71.13 67.23 61.63 55.76 56.84 70.65 69.83 70.32 69.47 68.74 62.22 58.00 57.90 58.54 58.91 68.03 65.93 65.12
63.45 64.27 65.33 66.61 69.10 69.85 69.58 70.44 70.97 74.45 75.62 76.64 75.66 74.98 78.37 78.46 78.67 78.36 78.81 76.97 74.89 73.18 71.14 70.50 70.14 69.45 67.85 59.59 55.65 56.21 59.13 59.85 70.38 68.95 66.72 59.83 56.18 54.73 57.01 60.93 57.35 58.72 62.14
64.05 64.06 64.69 65.81 67.42 69.56 69.97 68.07 70.18 72.76 74.40 75.18 77.19 75.96 76.50 75.13 75.83 75.69 75.42 74.48 71.83 70.42 69.53 68.91 68.62 67.74 65.85 64.48 56.13 55.60 57.35 59.55 68.31 67.50 57.83 56.67 55.62 55.26 57.48 57.55 57.01 57.73 64.10
62.91 63.89 64.06 64.68 65.91 68.03 68.69 69.15 69.88 71.18 73.38 73.46 75.43 74.65 71.51 69.52 69.52 71.56 71.11 70.00 70.26 69.56 69.52 68.68 68.27 68.07 66.54 64.98 65.08 64.79 63.58 60.15 63.32 59.47 59.78 59.61 61.19 58.61 60.47 60.17 59.68 64.02 66.17
62.49 63.25 63.10 64.07 65.62 67.68 67.13 68.98 69.91 70.89 70.28 72.51 73.63 73.32 69.16 68.73 65.94 59.69 52.40 58.18 57.39 62.03 69.62 69.05 67.52 65.33 63.31 58.80 52.33 52.52 65.89 65.82 59.49 64.80 64.58 63.20 65.53 65.19 66.14 66.33 66.57 68.16 67.45
63.05 62.89 63.37 63.95 65.00 66.06 66.34 68.68 70.64 70.31 69.71 70.33 71.27 71.45 70.29 68.01 63.56 58.56 55.23 54.26 51.14 48.73 48.15 51.37 55.95 54.65 52.68 47.35 45.92 44.85 45.57 47.57 51.37 64.84 64.62 63.22 63.46 63.34 64.03 63.77 64.15 66.93 65.84
MSLP
1004.78 1005.51 1006.37 1007.15 1008.15 1009.07 1009.97 1010.59 1010.94 1011.31 1011.63 1012.01 1012.06 1011.97 1011.75 1011.56 1011.80 1012.28 1012.24 1011.91 1011.91 1012.39 1011.82 1012.34 1012.20 1011.99 1012.18 1012.28 1012.78 1012.80 1012.40 1012.12 1012.02 1012.16 1012.05 1012.00 1012.26 1012.59 1013.04 1013.34 1012.71 1013.04 1013.89
1004.03 1004.92 1005.89 1006.61 1007.47 1008.56 1009.48 1010.26 1010.78 1011.25 1011.66 1011.78 1011.71 1011.93 1011.74 1011.72 1011.71 1012.02 1012.42 1011.38 1011.45 1011.58 1011.66 1012.22 1012.15 1012.24 1012.17 1012.53 1012.81 1013.20 1012.67 1012.88 1012.18 1012.44 1012.81 1012.67 1012.91 1012.75 1013.19 1013.90 1014.12 1014.55 1014.16
1003.26 1004.18 1005.18 1006.12 1006.90 1007.85 1008.85 1009.73 1010.42 1010.92 1011.36 1011.52 1011.49 1011.55 1011.62 1011.62 1011.52 1011.65 1011.86 1011.35 1011.35 1011.47 1011.48 1011.69 1012.08 1012.38 1012.42 1012.68 1012.90 1012.74 1012.44 1012.78 1012.31 1012.37 1012.84 1012.95 1012.96 1012.90 1013.25 1013.93 1013.88 1014.27 1014.16
1002.41 1003.31 1004.41 1005.45 1006.28 1007.11 1008.14 1009.01 1009.87 1010.46 1011.05 1011.34 1011.53 1011.53 1011.51 1011.44 1011.15 1011.13 1010.80 1011.18 1011.15 1011.23 1011.16 1011.24 1011.49 1011.92 1012.20 1012.15 1012.16 1012.11 1012.24 1012.30 1012.32 1012.19 1012.15 1012.60 1012.91 1013.34 1013.52 1014.18 1014.09 1013.95 1013.92
1001.11 1002.19 1003.36 1004.51 1005.45 1006.30 1007.22 1008.20 1009.24 1009.96 1010.37 1010.91 1011.17 1011.30 1011.42 1011.23 1011.17 1010.88 1011.10 1010.90 1010.95 1010.63 1010.66 1010.77 1011.11 1011.50 1011.75 1011.86 1012.06 1012.05 1012.28 1012.24 1012.19 1012.04 1011.84 1012.16 1012.41 1012.89 1013.62 1013.73 1013.92 1013.85 1013.60
999.87 1001.07 1002.21 1003.43 1004.45 1005.33 1006.23 1007.26 1008.35 1009.24 1009.97 1010.40 1010.77 1011.05 1011.01 1010.95 1011.04 1010.93 1010.65 1010.47 1010.47 1010.48 1010.57 1010.82 1011.08 1011.42 1011.54 1011.71 1011.93 1012.03 1012.00 1011.90 1011.88 1011.83 1011.84 1011.77 1011.95 1012.22 1012.65 1013.51 1013.78 1013.82 1013.51
998.73 1000.01 1001.29 1002.52 1003.63 1004.50 1005.37 1006.24 1007.50 1008.45 1009.13 1009.80 1010.28 1010.66 1010.82 1010.74 1010.76 1010.79 1010.61 1010.46 1010.38 1010.28 1010.66 1011.01 1011.16 1011.32 1011.52 1011.70 1011.78 1011.75 1011.69 1011.52 1011.59 1011.62 1011.58 1011.36 1011.44 1011.58 1011.92 1012.86 1013.31 1013.53 1013.49
998.04 999.18 1000.40 1001.68 1002.85 1003.74 1004.60 1005.49 1006.72 1007.85 1008.54 1009.28 1009.73 1010.19 1010.55 1010.68 1010.66 1010.67 1010.69 1010.58 1010.51 1010.39 1010.80 1010.87 1011.00 1011.17 1011.40 1011.56 1011.58 1011.54 1011.40 1011.28 1011.22 1011.22 1011.22 1011.18 1011.09 1010.92 1011.42 1012.09 1012.69 1013.23 1013.38
997.61 998.68 999.69 1000.85 1001.98 1002.96 1003.88 1004.74 1006.05 1007.15 1007.83 1008.51 1009.19 1009.68 1010.09 1010.41 1010.43 1010.42 1010.57 1010.59 1010.49 1010.45 1010.45 1010.64 1010.85 1011.13 1011.28 1011.38 1011.42 1011.38 1011.26 1011.23 1011.24 1011.20 1010.97 1010.98 1010.60 1010.43 1010.51 1011.43 1011.85 1012.13 1013.18
997.95 998.64 999.45 1000.27 1001.24 1002.20 1003.21 1004.24 1005.25 1006.41 1007.15 1007.88 1008.46 1008.98 1009.39 1009.77 1010.15 1010.19 1010.13 1010.20 1010.20 1010.26 1010.42 1010.66 1010.97 1011.11 1011.17 1011.22 1011.30 1011.27 1011.14 1011.18 1011.04 1010.94 1010.83 1010.48 1010.30 1010.27 1010.66 1011.30 1011.58 1012.01 1012.75
998.13 998.50 999.12 999.96 1000.86 1001.68 1002.67 1003.56 1004.58 1005.67 1006.69 1007.42 1007.94 1008.39 1008.85 1009.24 1009.62 1009.86 1009.97 1010.07 1010.11 1010.20 1010.41 1010.62 1010.89 1011.01 1011.00 1011.02 1011.09 1011.19 1011.01 1010.82 1010.77 1010.64 1010.55 1010.35 1010.15 1010.29 1010.87 1011.25 1011.58 1012.23 1012.76
999.29 999.16 999.03 999.20 999.89 1000.69 1001.61 1002.63 1003.61 1004.52 1005.61 1006.52 1007.31 1007.85 1008.30 1008.76 1009.07 1009.32 1009.53 1009.75 1009.93 1010.04 1010.20 1010.41 1010.62 1010.71 1010.73 1010.80 1010.96 1010.95 1010.79 1010.76 1010.71 1010.49 1010.45 1010.19 1009.95 1010.21 1010.91 1011.43 1012.06 1012.60 1013.06
1001.10 1000.67 1000.39 1000.59 1000.88 999.86 1000.36 1001.24 1002.33 1003.23 1004.41 1005.36 1006.40 1007.19 1007.74 1008.18 1008.49 1008.73 1009.07 1009.23 1009.37 1009.57 1009.78 1009.89 1010.15 1010.36 1010.47 1010.66 1010.71 1010.80 1010.95 1010.77 1010.58 1010.53 1010.44 1010.45 1010.45 1010.59 1010.80 1011.60 1012.27 1012.82 1013.13
1002.24 1002.44 1002.36 1002.26 1001.85 1001.14 1000.31 1000.59 1001.38 1002.28 1003.42 1004.56 1005.41 1006.28 1006.93 1007.42 1007.83 1008.18 1008.54 1008.75 1008.83 1009.05 1009.30 1009.50 1009.68 1009.94 1010.21 1010.42 1010.83 1010.95 1010.95 1010.58 1010.54 1010.60 1010.69 1010.88 1011.03 1011.02 1011.34 1011.91 1012.63 1013.18 1013.42
1003.36 1003.74 1003.71 1003.35 1002.78 1002.16 1001.53 1001.18 1001.42 1001.70 1002.49 1003.64 1004.55 1005.30 1006.00 1006.74 1007.24 1007.52 1007.76 1008.09 1008.28 1008.56 1008.88 1009.08 1009.32 1009.69 1010.34 1011.18 1011.21 1011.19 1010.89 1010.64 1010.58 1010.63 1010.81 1011.36 1011.44 1011.26 1011.61 1012.01 1012.65 1013.08 1013.34
1004.24 1004.63 1004.60 1004.25 1003.70 1003.11 1002.61 1002.03 1001.99 1002.20 1002.57 1003.11 1003.76 1004.61 1005.36 1005.96 1006.49 1006.84 1007.06 1007.42 1007.71 1008.06 1008.43 1008.63 1008.83 1009.48 1010.79 1011.41 1011.51 1011.48 1010.77 1010.69 1010.83 1011.00 1011.14 1011.55 1011.80 1011.98 1011.98 1012.27 1012.66 1013.00 1013.47
1005.13 1005.41 1005.32 1004.93 1004.33 1003.66 1003.17 1002.79 1002.53 1002.65 1002.94 1003.36 1003.61 1003.99 1004.53 1005.12 1005.70 1006.09 1006.38 1006.78 1007.21 1007.60 1007.93 1008.19 1008.58 1009.51 1010.61 1011.20 1011.53 1011.42 1010.96 1010.94 1011.09 1011.26 1011.31 1011.58 1012.14 1012.39 1012.62 1012.89 1013.18 1013.52 1013.94
1005.93 1005.99 1005.84 1005.48 1004.80 1004.45 1004.25 1003.64 1002.87 1002.76 1002.99 1003.28 1003.51 1003.68 1004.04 1004.51 1005.04 1005.46 1005.73 1006.05 1006.49 1006.97 1007.56 1008.16 1008.90 1009.91 1010.93 1011.32 1011.23 1011.07 1011.07 1011.05 1011.26 1011.39 1011.65 1011.80 1012.16 1012.45 1012.86 1013.22 1013.53 1013.77 1013.98
1006.22 1006.34 1006.24 1005.80 1005.30 1005.06 1004.73 1004.53 1004.07 1003.31 1003.16 1003.10 1003.19 1003.51 1003.84 1004.17 1004.65 1005.12 1005.42 1005.53 1005.86 1006.43 1007.19 1007.87 1008.79 1009.90 1011.14 1011.35 1010.88 1010.79 1010.61 1010.99 1011.16 1011.53 1011.97 1011.90 1012.22 1012.62 1012.89 1013.18 1013.68 1013.91 1014.04
1006.65 1006.64 1006.47 1006.02 1005.83 1005.95 1005.48 1004.95 1004.61 1004.26 1003.75 1003.43 1003.03 1003.17 1003.47 1003.88 1004.20 1004.41 1004.56 1004.62 1005.10 1005.91 1006.70 1007.81 1008.58 1009.61 1010.71 1010.86 1010.67 1010.57 1010.31 1010.49 1011.03 1011.42 1011.90 1012.19 1012.59 1012.92 1013.07 1013.02 1013.41 1013.76 1013.94
1006.93 1006.81 1006.69 1006.49 1006.56 1006.36 1006.05 1005.54 1005.19 1004.79 1004.39 1003.97 1003.58 1002.82 1002.94 1003.22 1003.31 1003.67 1004.21 1004.40 1004.96 1005.93 1006.92 1007.76 1008.69 1009.49 1010.19 1010.72 1010.61 1010.14 1009.89 1009.98 1010.49 1011.09 1011.63 1012.44 1012.75 1013.00 1013.17 1013.00 1012.96 1013.47 1013.97
1007.20 1006.95 1006.84 1006.72 1006.63 1006.64 1006.41 1006.01 1005.72 1005.26 1004.81 1004.42 1003.80 1003.21 1002.67 1002.59 1003.27 1003.64 1004.38 1005.13 1005.50 1006.34 1007.25 1007.92 1008.92 1009.78 1010.58 1010.87 1010.93 1010.74 1010.57 1010.56 1010.27 1011.04 1011.75 1012.41 1012.67 1012.96 1013.22 1013.21 1013.18 1013.41 1013.92
1007.45 1007.43 1007.14 1006.81 1006.73 1006.54 1006.51 1006.29 1005.89 1005.47 1005.04 1004.57 1003.69 1003.23 1003.16 1003.61 1003.54 1004.46 1005.13 1005.76 1007.36 1006.81 1007.97 1008.53 1008.92 1009.99 1010.91 1011.38 1011.41 1011.47 1011.21 1010.88 1010.73 1011.20 1012.06 1012.57 1012.81 1012.99 1013.22 1013.39 1013.39 1013.27 1013.56
1007.31 1007.37 1007.20 1006.90 1006.60 1006.41 1006.27 1006.09 1005.81 1005.50 1005.12 1004.63 1003.88 1003.66 1004.30 1004.68 1004.95 1000.87 1002.94 1006.43 1007.95 1007.70 1007.91 1008.43 1008.76 1008.95 1010.50 1011.30 1011.29 1011.59 1011.52 1011.42 1011.42 1011.70 1012.35 1012.67 1012.73 1012.66 1013.02 1013.29 1013.53 1013.31 1013.17
1007.39 1007.17 1006.92 1006.65 1006.25 1006.07 1006.03 1005.63 1005.35 1005.26 1005.18 1004.70 1004.18 1004.08 1004.84 1005.67 1005.86 1004.16 1007.10 1008.20 1008.74 1007.88 1008.58 1007.61 1007.96 1008.74 1009.54 1011.34 1011.60 1011.85 1011.12 1011.13 1011.41 1011.43 1011.93 1012.62 1012.61 1012.91 1013.10 1013.12 1013.07 1012.93 1012.61
1006.96 1006.76 1006.54 1006.19 1005.77 1005.54 1005.45 1005.14 1004.92 1004.91 1004.91 1004.75 1004.41 1004.16 1005.04 1005.72 1006.65 1008.37 1009.44 1010.13 1012.56 1007.77 1007.52 1008.48 1007.75 1008.65 1009.07 1010.40 1011.48 1011.72 1011.77 1011.73 1011.21 1011.44 1011.77 1012.65 1012.91 1013.08 1013.15 1013.54 1013.49 1013.09 1013.12
Wind_Speed
16 16 14 14 16 13 12 8 7 5 4 3 6 4 6 5 4 5 6 7 9 11 4 4 7 5 1 1 1 3 3 4 2 3 3 3 5 6 4 1 4 8 3
17 16 16 14 15 15 13 11 9 9 5 5 4 3 1 1 1 6 9 3 3 4 1 5 4 6 3 2 6 9 3 7 2 1 1 3 1 3 3 4 6 5 2
17 17 17 15 14 16 16 13 11 10 9 8 4 2 2 4 4 6 7 4 5 4 3 1 2 2 3 2 6 9 4 3 4 3 2 3 3 2 3 3 4 2 3
18 17 17 17 15 15 16 15 14 10 10 9 6 6 5 6 2 1 3 7 7 6 6 7 6 3 3 6 5 3 3 4 5 3 4 5 3 3 3 1 2 4 4
19 19 20 18 17 16 16 15 15 13 10 12 9 6 6 6 3 3 7 5 5 7 6 5 3 2 3 4 5 5 4 3 4 4 4 3 4 4 4 5 2 2 4
20 17 19 19 16 15 15 17 17 14 13 12 12 9 7 10 5 3 3 4 5 6 6 4 3 1 2 3 4 4 5 4 5 5 6 5 3 4 3 2 3 3 2
18 17 17 17 16 16 16 14 18 16 15 13 13 12 10 8 7 4 4 2 5 1 5 5 4 2 2 3 4 4 5 6 4 5 5 5 7 6 2 2 2 2 0
13 18 18 16 16 16 15 14 19 16 15 15 12 11 11 7 6 4 4 3 4 5 4 2 2 3 4 4 4 4 4 6 4 6 4 5 7 6 3 3 4 2 1
12 14 17 16 15 14 15 15 17 16 16 16 12 11 10 10 8 7 6 5 5 5 5 4 2 2 3 4 4 4 5 5 5 6 7 6 6 4 4 5 4 4 2
6 13 11 14 14 14 13 13 15 17 16 15 13 12 12 11 10 6 6 6 4 3 3 1 2 4 4 3 3 4 5 5 5 4 6 5 5 6 5 4 3 3 3
7 11 13 13 14 13 13 13 13 16 14 14 13 13 12 12 10 9 7 6 5 4 4 3 3 4 5 3 3 4 7 4 6 6 5 6 5 4 5 3 3 5 3
17 15 2 17 19 18 17 17 16 15 17 14 10 13 12 12 12 11 10 9 8 7 6 5 5 5 4 4 3 5 5 6 8 6 6 6 4 5 5 4 6 5 3
12 14 16 16 16 14 19 18 18 17 18 16 15 11 12 12 11 11 10 8 8 8 7 6 7 5 5 3 2 5 6 5 5 6 7 9 10 8 5 7 6 4 4
9 13 13 13 15 15 2 11 17 17 16 16 16 14 14 13 11 10 10 10 8 8 7 6 5 5 4 5 6 4 5 3 5 5 6 8 7 6 8 7 8 6 4
12 12 12 13 13 14 10 5 5 8 13 16 16 16 13 13 12 12 12 11 10 8 7 6 7 5 7 4 4 3 4 4 4 4 7 8 9 8 8 7 8 7 5
12 12 11 13 12 12 11 8 4 4 3 10 15 14 13 12 13 13 13 11 10 9 8 8 7 6 7 6 4 2 2 3 7 7 6 7 8 8 8 12 10 7 6
11 11 12 13 11 9 9 9 6 3 4 4 8 12 13 14 14 13 12 12 11 9 8 8 6 8 8 8 4 2 3 4 5 5 4 6 6 7 8 9 10 7 2
9 9 10 12 11 13 15 14 9 5 6 7 7 10 11 13 13 13 13 11 10 9 8 8 9 8 6 2 3 3 3 4 6 5 6 5 7 5 8 7 6 3 5
8 8 9 11 10 13 11 12 13 10 8 8 9 8 11 11 12 13 12 11 11 9 10 9 10 9 5 2 4 4 7 6 6 6 5 2 8 5 5 6 5 4 3
8 8 11 12 11 12 15 12 11 10 11 9 9 9 9 11 13 14 14 12 11 12 10 10 11 12 6 2 3 2 4 9 6 5 6 11 8 6 6 1 7 4 3
11 9 8 9 9 11 12 11 11 12 12 11 14 9 11 12 15 14 12 12 14 13 12 11 9 10 8 3 2 3 4 4 6 5 5 5 8 7 5 0 5 6 5
13 13 10 8 7 8 11 11 11 13 13 15 13 12 12 11 10 14 12 13 12 12 11 11 8 6 6 6 0 6 7 1 5 6 5 6 9 8 5 6 7 12 8
10 11 12 10 9 7 7 11 12 13 12 14 13 10 11 10 11 14 11 10 9 10 9 7 8 8 5 3 6 5 4 3 6 6 7 10 8 8 7 6 6 8 4
10 10 12 13 10 8 9 9 10 11 12 13 13 7 4 7 6 12 7 4 4 6 7 8 8 10 9 6 6 4 4 5 8 9 5 5 5 4 7 5 3 4 4
12 12 12 13 11 8 11 11 8 9 11 12 11 6 1 5 3 8 10 10 4 2 6 6 6 10 9 5 4 5 3 5 4 6 6 4 3 4 3 1 1 2 2
11 11 13 15 13 11 12 9 7 8 9 11 9 5 3 4 7 9 7 12 19 17 14 4 11 4 17 17 9 5 4 4 5 5 6 5 3 4 4 3 3 4 6
Wind_Direction
184 173 185 171 153 158 162 183 175 164 148 192 208 243 217 228 207 90 254 175 159 206 215 165 226 224 177 123 315 285 306 321 152 341 354 8 94 92 73 347 79 113 147
184 182 178 177 169 162 167 171 183 163 188 214 224 194 259 216 66 82 291 223 115 255 216 317 9 12 2 132 51 296 310 335 101 56 357 317 166 168 134 50 55 29 327
193 180 175 185 180 169 170 174 185 179 180 233 228 253 286 256 209 187 213 178 159 254 168 125 280 289 274 103 189 241 95 244 338 101 172 279 261 350 126 115 116 330 297
188 179 177 181 189 181 174 173 180 188 189 212 243 200 228 238 243 293 168 162 198 194 215 198 201 223 318 302 306 38 5 352 317 313 243 224 240 261 308 54 272 240 263
184 186 182 180 191 190 180 178 177 186 202 192 222 226 220 261 222 236 176 186 159 212 235 235 179 209 224 295 329 349 343 284 270 282 320 218 226 231 215 291 315 249 247
177 184 179 177 186 190 188 177 174 183 194 191 200 229 221 239 272 316 254 191 210 209 215 230 184 242 299 311 339 338 300 278 280 297 299 282 270 277 248 218 259 256 316
180 173 173 173 179 191 189 189 172 182 187 207 198 211 234 241 246 284 280 273 296 88 187 208 174 227 351 313 301 297 285 278 291 280 282 303 307 318 28 152 166 250 39
182 172 176 170 175 185 187 195 168 181 187 195 203 200 217 230 239 251 256 272 268 334 95 133 56 14 336 299 300 287 292 298 314 303 326 292 294 301 167 170 159 158 215
170 176 174 174 179 181 185 189 166 181 185 192 200 203 201 217 221 232 214 251 274 277 270 6 347 276 313 305 317 295 312 352 340 312 317 307 308 315 323 150 179 147 170
177 167 180 175 178 179 184 187 169 182 186 193 199 202 204 204 225 241 231 229 251 233 322 358 321 298 297 299 297 294 334 329 311 315 310 315 319 336 95 148 169 118 128
164 181 178 180 177 182 188 186 191 175 183 196 203 203 205 205 210 223 232 246 253 260 261 256 263 275 271 274 284 313 281 318 312 311 340 317 333 359 104 132 99 110 97
1 356 265 193 185 186 187 187 189 185 183 188 205 200 198 204 207 213 222 218 228 227 225 221 232 246 265 273 325 309 336 355 330 347 340 331 346 62 142 122 109 128 89
7 353 7 1 354 200 185 187 185 191 181 180 191 195 201 200 207 204 210 218 210 216 226 215 212 224 241 277 293 36 357 317 346 0 348 20 21 12 104 114 121 116 115
24 21 3 354 346 340 353 184 181 184 176 181 184 196 199 199 202 202 203 213 210 215 217 224 240 203 233 55 45 15 310 343 10 16 20 39 24 1 108 121 118 118 134
40 16 4 348 343 345 341 19 352 186 178 178 185 195 194 198 203 205 205 206 209 217 223 213 221 196 80 54 30 1 303 41 15 9 55 62 42 60 122 129 139 145 143
37 25 7 355 341 338 332 323 325 331 340 176 185 185 191 194 202 205 203 203 209 209 204 212 203 153 95 76 60 335 333 41 27 46 38 86 65 61 104 123 138 142 144
29 19 1 349 342 330 321 310 287 249 272 297 198 189 187 195 202 200 197 200 201 196 201 201 142 102 99 45 353 334 291 71 57 51 34 74 88 95 108 93 97 105 21
19 9 357 337 348 1 354 348 322 259 221 239 253 202 197 197 200 199 198 187 185 184 184 137 121 119 91 45 307 9 243 112 86 45 56 107 120 133 127 139 130 94 50
8 355 346 330 350 5 348 1 346 317 309 265 227 226 208 204 202 199 194 186 177 173 148 142 134 122 129 42 15 352 178 140 110 90 58 57 113 147 66 121 128 99 59
355 3 339 334 12 348 336 351 336 332 319 288 244 222 213 209 207 196 194 187 174 152 144 145 135 130 151 144 66 21 244 153 135 124 119 64 96 72 63 64 145 140 125
330 339 340 341 1 341 338 334 331 329 329 330 323 246 207 210 209 199 192 168 160 149 144 140 139 149 149 144 85 39 94 94 138 134 138 112 98 87 76 12 171 146 143
323 327 326 333 340 344 333 333 326 328 326 322 310 303 229 208 209 200 173 160 151 143 144 139 145 139 143 138 153 72 78 195 101 105 100 117 117 103 84 80 118 132 157
320 320 313 318 318 320 325 321 319 319 329 316 302 294 279 255 222 181 167 143 144 140 138 152 169 153 153 151 163 180 157 122 86 84 100 127 126 117 100 126 147 153 210
302 302 303 301 297 307 312 298 307 315 320 313 305 303 359 65 9 17 145 114 147 154 156 180 193 155 152 166 171 186 153 114 98 119 127 131 131 85 108 143 193 229 253
291 290 287 286 285 292 298 288 297 315 315 310 300 279 226 143 142 101 26 341 271 244 193 191 180 156 137 116 55 353 135 123 97 124 130 160 177 172 150 56 210 279 208
290 287 288 285 283 288 284 291 297 306 309 302 293 279 154 158 122 112 107 64 336 35 11 155 138 95 125 134 146 129 88 119 141 139 117 99 73 45 59 41 4 40 17